Weather History for CYLW - February, 2014

Change the Weather History Date:

Wednesday, February 12, 2014

  Actual Average Record
Temperature  
Mean Temperature 38 °F -  
Max Temperature 49 °F 36 °F 49 °F (2014)
Min Temperature 27 °F 20 °F 14 °F (2004)
Degree Days  
Heating Degree Days 27    
Moisture  
Dew Point 29 °F    
Average Humidity 83    
Maximum Humidity 100    
Minimum Humidity 29    
Precipitation  
Precipitation 0.08 in - - ()
Sea Level Pressure  
Sea Level Pressure 29.54 in    
Wind  
Wind Speed 6 mph ()    
Max Wind Speed 18 mph    
Max Gust Speed 26 mph    
Visibility 5.7 miles    
Events Rain , Snow    
Averages and records for this station are not official NWS values.
T = Trace of Precipitation, MM = Missing Value Source: Averaged Metar Reports

Daily Weather History Graph

Daily Weather History Graph

Search for Another Location

Airport or City:

Trip Planner

Search our weather history database for the weather conditions in past years. The results will help you decide how hot, cold, wet, or windy it might be!

Date:

Astronomy

Feb. 12, 2014 Rise Set
Actual Time 7:12 AM PST 5:11 PM PST
Civil Twilight 6:39 AM PST 5:44 PM PST
Nautical Twilight 6:01 AM PST 6:22 PM PST
Astronomical Twilight 5:24 AM PST 7:00 PM PST
Moon 3:25 PM PST (2/12) 5:38 AM PST (2/12)
Length of Visible Light 11h 05m
Length of Day
9h 58m
Waxing Gibbous, 96% of the Moon is Illuminated
Feb 12
Waxing Gibbous
Feb 14
Full
Feb 22
Last Quarter
Mar 1
New
Mar 8
First Quarter

Hourly Weather History & Observations

Time (PST) Temp. Windchill Dew Point Humidity Pressure Visibility Wind Dir Wind Speed Gust Speed Precip Events Conditions
12:00 AM 28.4 °F - 24.8 °F 86% 29.72 in 9.0 mi Calm Calm - N/A   Overcast
1:00 AM 28.4 °F 24.6 °F 24.8 °F 86% 29.65 in 9.0 mi ENE 3.5 mph - N/A   Overcast
1:32 AM 30.2 °F 26.7 °F 26.6 °F 86% 29.60 in 9.0 mi East 3.5 mph - N/A Snow Light Snow
1:40 AM 30.2 °F 26.7 °F 26.6 °F 86% 29.59 in 5.0 mi NE 3.5 mph - N/A Snow Light Snow
1:45 AM 30.2 °F - 26.6 °F 86% 29.58 in 2.2 mi Variable 2.3 mph - N/A Snow Light Snow
1:53 AM 30.2 °F 23.4 °F 26.6 °F 86% 29.58 in 1.5 mi NNW 6.9 mph - N/A Snow Light Snow
2:00 AM 30.2 °F 22.6 °F 26.6 °F 86% 29.57 in 1.8 mi North 8.1 mph - N/A Snow Light Snow
2:18 AM 28.4 °F 23.3 °F 26.6 °F 93% 29.56 in 1.2 mi North 4.6 mph - N/A Snow Light Snow
2:37 AM 28.4 °F 21.2 °F 28.4 °F 100% 29.54 in 1.5 mi North 6.9 mph - N/A Snow Light Snow
2:44 AM 28.4 °F 21.2 °F 28.4 °F 100% 29.53 in 1.2 mi North 6.9 mph - N/A Snow Light Snow
3:00 AM 28.4 °F 20.4 °F 28.4 °F 100% 29.50 in 1.2 mi North 8.1 mph - N/A Snow Light Snow
3:03 AM 28.4 °F 20.4 °F 28.4 °F 100% 29.50 in 1.5 mi North 8.1 mph - N/A Snow Light Snow
3:30 AM 28.4 °F 19.7 °F 28.4 °F 100% 29.47 in 3.0 mi North 9.2 mph - N/A Snow Light Snow
3:40 AM 28.4 °F 19.1 °F 28.4 °F 100% 29.47 in 2.5 mi NNW 10.4 mph - N/A Snow Light Snow
4:00 AM 29 °F - 28 °F 96% 29.44 in 2 mi North 8.1 mph - - Snow Light Snow
4:00 AM 28.4 °F 20.4 °F 28.4 °F 100% 29.44 in 2.0 mi North 8.1 mph - N/A Snow Light Snow
4:19 AM 30.2 °F 20.8 °F 28.4 °F 93% 29.43 in 3.0 mi North 11.5 mph - N/A Snow Light Snow
4:29 AM 30.2 °F 20.2 °F 28.4 °F 93% 29.43 in 6.0 mi North 12.7 mph - N/A Snow Light Snow
4:48 AM 30.2 °F 22.6 °F 28.4 °F 93% 29.43 in 8.0 mi NNE 8.1 mph - N/A   Overcast
4:53 AM 30.2 °F 21.9 °F 28.4 °F 93% 29.43 in 8.0 mi North 9.2 mph - N/A Snow Light Snow
4:59 AM 30.2 °F 22.6 °F 28.4 °F 93% 29.43 in 5.0 mi North 8.1 mph - N/A Snow Light Snow
5:00 AM 30.2 °F 21.9 °F 28.4 °F 93% 29.43 in 5.0 mi North 9.2 mph - N/A Snow Light Snow
5:05 AM 30.2 °F 22.6 °F 28.4 °F 93% 29.43 in 2.5 mi North 8.1 mph - N/A Snow Light Snow
5:09 AM 30.2 °F 22.6 °F 28.4 °F 93% 29.43 in 2.5 mi North 8.1 mph - N/A Snow Light Snow
5:14 AM 30.2 °F 22.6 °F 28.4 °F 93% 29.43 in 2.5 mi North 8.1 mph - N/A Snow Light Snow
5:25 AM 30.2 °F 24.3 °F 28.4 °F 93% 29.43 in 2.5 mi North 5.8 mph - N/A Snow Light Snow
5:27 AM 30.2 °F 25.4 °F 28.4 °F 93% 29.42 in 3.0 mi North 4.6 mph - N/A Snow Light Snow
6:00 AM 30.2 °F 24.3 °F 30.2 °F 100% 29.43 in 3.0 mi North 5.8 mph - N/A Snow Light Snow
7:00 AM 32.0 °F 28.7 °F 30.2 °F 93% 29.45 in 4.0 mi North 3.5 mph - N/A Snow Light Snow
7:08 AM 32.0 °F 28.7 °F 30.2 °F 93% 29.45 in 4.0 mi NNE 3.5 mph - N/A Snow Light Snow
7:11 AM 32.0 °F - 30.2 °F 93% 29.45 in 4.0 mi Calm Calm - N/A Rain , Snow Light Snow
7:16 AM 32.0 °F 27.5 °F 30.2 °F 93% 29.46 in 4.0 mi NE 4.6 mph - N/A Rain Light Freezing Rain
7:25 AM 32.0 °F 27.5 °F 30.2 °F 93% 29.46 in 4.0 mi NE 4.6 mph - N/A Rain Light Rain
7:29 AM 32.0 °F 27.5 °F 30.2 °F 93% 29.47 in 4.0 mi NNW 4.6 mph - N/A Rain , Snow Light Snow
7:33 AM 32.0 °F 27.5 °F 32.0 °F 100% 29.47 in 4.0 mi NNE 4.6 mph - N/A Snow Light Snow
7:36 AM 32.0 °F - 32.0 °F 100% 29.48 in 4.0 mi Variable 2.3 mph - N/A Rain , Snow Light Snow
7:41 AM 32.0 °F 28.7 °F 32.0 °F 100% 29.48 in 5.0 mi NE 3.5 mph - N/A Rain Light Rain
7:56 AM 33.8 °F 28.6 °F 32.0 °F 93% 29.49 in 6.0 mi Variable 5.8 mph - N/A Rain Light Rain
8:00 AM 33.8 °F 27.0 °F 32.0 °F 93% 29.49 in 6.0 mi SSE 8.1 mph - N/A Rain Light Rain
8:36 AM 39.2 °F 32.5 °F 33.8 °F 81% 29.50 in 9.0 mi SSE 10.4 mph 18.4 mph N/A   Overcast
9:00 AM 37.4 °F - 33.8 °F 87% 29.52 in 9.0 mi Calm Calm - N/A   Mostly Cloudy
9:45 AM 41.0 °F 35.2 °F 33.8 °F 76% 29.52 in 9.0 mi SE 9.2 mph - N/A   Scattered Clouds
10:00 AM 41 °F - 34 °F 68% 29.54 in 10 mi SSE 9.2 mph - -   Clear
10:00 AM 41.0 °F 35.2 °F 33.8 °F 76% 29.54 in 9.0 mi SSE 9.2 mph - N/A   Partly Cloudy
11:00 AM 46.4 °F 41.1 °F 33.8 °F 62% 29.56 in 9.0 mi SSE 11.5 mph - N/A   Clear
12:00 PM 46.4 °F 41.9 °F 32.0 °F 57% 29.60 in 9.0 mi South 9.2 mph - N/A   Clear
1:00 PM 50.0 °F - 28.4 °F 43% 29.62 in 9.0 mi South 8.1 mph 21.9 mph N/A   Partly Cloudy
2:00 PM 48.2 °F - 28.4 °F 46% 29.64 in 9.0 mi SE 16.1 mph - N/A   Mostly Cloudy
3:00 PM 48.2 °F - 28.4 °F 46% 29.67 in 9.0 mi South 18.4 mph 25.3 mph N/A   Overcast
4:00 PM 48 °F - 26 °F 29% 29.70 in 10 mi SSW 15.0 mph - -  
4:00 PM 48.2 °F - 24.8 °F 40% 29.70 in 9.0 mi South 11.5 mph 26.5 mph N/A   Mostly Cloudy
5:00 PM 46.4 °F 40.1 °F 24.8 °F 43% 29.71 in 9.0 mi SW 15.0 mph 24.2 mph N/A   Partly Cloudy
6:00 PM 46.4 °F 41.9 °F 26.6 °F 46% 29.73 in 9.0 mi SW 9.2 mph - N/A   Overcast
7:00 PM 41.0 °F 37.1 °F 26.6 °F 57% 29.71 in 9.0 mi East 5.8 mph - N/A   Mostly Cloudy
8:00 PM 37.4 °F - 26.6 °F 65% 29.69 in 9.0 mi Variable 2.3 mph - N/A   Mostly Cloudy
9:00 PM 32.0 °F - 26.6 °F 80% 29.67 in 9.0 mi NE 2.3 mph - N/A   Mostly Cloudy
10:00 PM 30 °F - 26 °F 78% 29.68 in 10 mi NNE 3.5 mph - -  
10:00 PM 30.2 °F 25.4 °F 26.6 °F 86% 29.67 in 9.0 mi North 4.6 mph - N/A   Mostly Cloudy
11:00 PM 30.2 °F - 26.6 °F 86% 29.65 in 9.0 mi Variable 2.3 mph - N/A   Overcast